Notices

What's New in latest Release from April 7th, 2021:

- Updated Glossary, including Speed of Maximum Gust, and Total Hourly Precipitation

- Updated national and regional climate services offices contacts and prices information

- Addition of station inventory lists for 1981-2010, 1971-2000, and 1961-1990 Normals.

If you haven't already, please take our survey and provide feedback about our website: https://eccc.sondage-survey.ca/f/LanguageSelection.aspx?s=442ca660-fcf1-47c0-95a9-59707d6fd709

Hourly Data Report for December 04, 2020

FORT GOOD HOPE CS
NORTHWEST TERRITORIES
Current Station Operator: ECCC - MSC

66°14'32.044" N
128°38'39.081" W
81.70 m
2201450
71491
ZGH

Download Data

Hourly Data (December 2020)
Hourly Data Report for December 4, 2020
TIME
LST
Temp Definition
°C
Dew Point Definition
°C
Rel Hum Definition
%
Precip. Amount Definition
mm

Wind Dir Definition
10's deg

Wind Spd Definition
km/h
Visibility Definition
km
Stn Press Definition
kPa
Hmdx Definition


Wind Chill Definition


Weather Definition


00:00 -3.4 -9.9 61 0.0 29 13   99.95   -8 LegendNANA
01:00 -4.0 -10.0 63 0.0 28 11   100.03   -8 LegendNANA
02:00 -4.9 -11.2 61 0.0 28 16   100.15   -11 LegendNANA
03:00 -6.4 -13.9 55 0.0 29 19   100.24   -13 LegendNANA
04:00 -7.3 -14.9 54 0.0 29 17   100.25   -14 LegendNANA
05:00 -7.9 -14.8 58 0.0 29 10   100.31   -13 LegendNANA
06:00 -7.9 -14.7 58 0.0 27 9   100.34   -12 LegendNANA
07:00 -8.0 -15.1 56 0.0 27 13   100.34   -14 LegendNANA
08:00 -8.2 -15.3 57 0.0 29 8   100.33   -12 LegendNANA
09:00 -8.4 -15.1 58 0.0 24 11   100.37   -14 LegendNANA
10:00 -9.3 -14.9 64 0.0 22 9   100.37   -14 LegendNANA
11:00 -9.7 -14.7 67 0.0 19 9   100.37   -15 LegendNANA
12:00 -9.6 -14.5 68 0.0 19 8   100.35   -14 LegendNANA
13:00 -9.8 -14.6 68 0.0 19 8   100.37   -14 LegendNANA
14:00 -10.8 -15.0 71 0.0 20 5   100.35   -14 LegendNANA
15:00 -12.0 -15.0 78 0.0 16 4   100.31   -15 LegendNANA
16:00 -13.1 -16.0 79 0.0 13 5   100.25   -16 LegendNANA
17:00 -14.4 -17.1 80 0.0 13 8   100.24   -20 LegendNANA
18:00 -12.7 -16.0 77 0.0 4 2   100.22   -14 LegendNANA
19:00 -12.5 -16.1 74 0.0 8 2   100.16   -14 LegendNANA
20:00 -13.1 -16.0 79 0.0 1 3   100.08   -15 LegendNANA
21:00 -13.3 -16.2 79 0.0 9 3   100.09   -15 LegendNANA
22:00 -13.2 -15.8 81 0.0 5 4   100.03   -16 LegendNANA
23:00 -13.1 -15.7 81 0.0 7 2   100.03   -14 LegendNANA

Notes on Data Quality.

Legend

  • E = Estimated
  • M = Missing
  • NA = Not Available*
  • [empty] = Indicates an unobserved value
Date modified: